Flag for Japan Weather past 2 weeks in Himeji, Japan

Now
59 °F

Passing clouds.


Feels Like: 57 °F
Forecast: 44 / 57 °F
Wind: 9 mph from North

Location: Osaka International Airport


UV Index: 5 (Moderate)

Visibility: N/A


Pressure: 30.09 "Hg

Humidity: 31%

Dew point: 28 °F

Location of HimejiLocation

Historic Weather in Himeji

°F

Himeji temperature yesterday

Maximum temperature yesterday: 66 °F (at 12:00 PM)
Minimum temperature yesterday: 55 °F (at 6:00 AM)
Average temperature yesterday: 61 °F

Past Weeks' High & Low Weather Summary

 TemperatureHumidityPressure
High75 °F (Apr 17, 2:00 PM)88% (Apr 18, 6:00 AM)30.18 "Hg (Apr 18, 6:00 AM)
Low36 °F (Apr 7, 5:00 AM)13% (Apr 14, 3:00 PM)29.45 "Hg (Apr 4, 10:00 AM)
Average57 °F44%29.98 "Hg
* Reported Apr 4 9:00 AM — Apr 19 9:00 AM, Himeji, Weather by CustomWeather, © 2014

Note: Actual official high and low records may vary slightly from our data, if they occured in-between our weather recording intervals... More about our weather records

Advertising

Historic Weather Conditions — Data for Previous 24 hours

 ConditionsComfort  
Time TempWeatherWind HumidityBarometerVisibility
9:00 AM
Apr 19
59 °FPassing clouds.9 mph31%30.09 "HgN/A
8:00 AM55 °FSunny.12 mph38%30.09 "Hg10 mi
7:00 AM54 °FPassing clouds.5 mph47%30.09 "HgN/A
6:00 AM50 °FPassing clouds.1 mph58%30.07 "HgN/A
5:00 AM50 °FPassing clouds.7 mph62%30.04 "HgN/A
8:00 PM
Apr 18
59 °FPassing clouds.5 mph59%29.92 "HgN/A
7:00 PM61 °FPartly cloudy.7 mph59%29.89 "HgN/A
6:00 PM64 °FBroken clouds.8 mph52%29.86 "HgN/A
5:00 PM66 °FBroken clouds.5 mph56%29.83 "HgN/A
4:00 PM66 °FPartly sunny.6 mph52%29.83 "HgN/A
3:00 PM66 °FBroken clouds.7 mph56%29.83 "HgN/A
2:00 PM64 °FPartly sunny.7 mph60%29.83 "HgN/A
1:00 PM64 °FBroken clouds.8 mph56%29.86 "HgN/A
12:00 PM66 °FBroken clouds.10 mph56%29.86 "HgN/A
11:00 AM64 °FPartly sunny.10 mph60%29.89 "HgN/A
10:00 AM61 °FBroken clouds.10 mph72%29.89 "HgN/A
Weather by CustomWeather, © 2014

See weather overview